This demonstration page uses our WeatherBlox Daily Observations layout. Learn more.

38.88101, -77.10428

Hourly Observations for August 24, 2018

Temp ( °F °C ) Dew Point ( °F °C ) Humidity (%) Winds ( mph kmh ) Pressure ( in mb ) Visibility ( mi km ) Precip ( " mm )
12:52 am 00:52 Clear 68 20 59 15 73 73 SW 5 7 30.16 1021 10 16.0934 0 0
1:52 am 01:52 Clear 68 20 61 16.1 78 78 N 3 6 30.16 1022 10 16.0934 0 0
2:52 am 02:52 Clear 67 19.4 58 14.4 73 73 Calm 30.16 1022 10 16.0934 0 0
3:52 am 03:52 Clear 66 18.9 58 14.4 75 75 Calm 30.17 1022 10 16.0934 0 0
4:52 am 04:52 Clear 66 18.9 58 14.4 75 75 N 3 6 30.17 1022 10 16.0934 0 0
5:52 am 05:52 Clear 65 18.3 57 13.9 76 76 Calm 30.18 1022 10 16.0934 0 0
6:52 am 06:52 Mostly Sunny 65 18.3 56 13.3 73 73 NNW 5 7 30.19 1022 10 16.0934 0 0
7:52 am 07:52 Sunny 68 20 59 15 73 73 N 6 9 30.21 1023 10 16.0934 0 0
8:52 am 08:52 Sunny 72 22.2 60 15.6 66 66 Calm 30.22 1024 10 16.0934 0 0
9:52 am 09:52 Sunny 76 24.4 58 14.4 54 54 Calm 30.23 1024 10 16.0934 0 0
10:52 am 10:52 Sunny 79 26.1 57 13.9 47 47 SSE 3 6 30.23 1024 10 16.0934 0 0
11:52 am 11:52 Partly Cloudy 80 26.7 54 12.2 41 41 SSW 7 11 30.24 1024 10 16.0934 0 0
12:52 pm 12:52 Sunny 83 28.3 53 11.7 36 36 S 8 13 30.25 1024 10 16.0934 0 0
1:52 pm 13:52 Partly Cloudy 82 27.8 54 12.2 38 38 SSE 7 11 30.24 1024 10 16.0934 0 0
2:52 pm 14:52 Partly Cloudy 83 28.3 53 11.7 36 36 S 7 11 30.22 1023 10 16.0934 0 0
3:52 pm 15:52 Partly Cloudy 83 28.3 54 12.2 37 37 SSE 7 11 30.2 1023 10 16.0934 0 0
4:52 pm 16:52 Partly Cloudy 83 28.3 54 12.2 37 37 SSW 8 13 30.19 1022 10 16.0934 0 0
5:52 pm 17:52 Partly Cloudy 82 27.8 58 14.4 44 44 S 8 13 30.19 1022 10 16.0934 0 0
6:52 pm 18:52 Partly Cloudy 80 26.7 58 14.4 47 47 SE 12 19 30.19 1023 10 16.0934 0 0
7:52 pm 19:52 Partly Cloudy 78 25.6 58 14.4 50 50 SE 9 15 30.2 1023 10 16.0934 0 0
8:52 pm 20:52 Partly Cloudy 76 24.4 59 15 56 56 SE 6 9 30.22 1023 10 16.0934 0 0
9:52 pm 21:52 Mostly Clear 75 23.9 60 15.6 60 60 S 5 7 30.23 1024 10 16.0934 0 0
10:52 pm 22:52 Mostly Clear 72 22.2 62 16.7 71 71 ESE 6 9 30.23 1024 10 16.0934 0 0
11:52 pm 23:52 Mostly Clear 72 22.2 59 15 64 64 SSW 3 6 30.23 1024 10 16.0934 0 0

Powered by AerisWeather